GW3624 Weather Reports


time (UTC)temp
C
wind
direction
speed
KPH
gust
KPH
rain 1hr
cm
rain 24hr
cm
rain mn
cm
humidity
%
barometer
mb
20260505170023 20 179 12.9 20.9 0.00 0.00 0.00 61 1012.2
20260505165508 20 169 11.3 17.7 0.00 0.00 0.00 62 1012.3
20260505165009 20 161 9.7 22.5 0.00 0.00 0.00 61 1012.5
20260505164503 20 187 8.0 24.1 0.00 0.00 0.00 62 1012.5
20260505164003 20 167 8.0 24.1 0.00 0.00 0.00 61 1012.7
20260505163504 20 174 11.3 24.1 0.00 0.00 0.00 61 1012.7
20260505163012 20 191 12.9 22.5 0.00 0.00 0.00 61 1012.7
20260505162506 20 112 11.3 19.3 0.00 0.00 0.00 62 1012.8
20260505162006 19 139 9.7 27.4 0.00 0.00 0.00 62 1012.8
20260505161514 19 84 8.0 27.4 0.00 0.00 0.00 62 1012.9
20260505161006 19 119 9.7 19.3 0.00 0.00 0.00 62 1012.9
20260505160506 20 175 6.4 19.3 0.00 0.00 0.00 62 1012.9
20260505153007 19 92 4.8 17.7 0.00 0.00 0.00 65 1012.9
20260505152503 19 167 8.0 17.7 0.00 0.00 0.00 64 1012.8
20260505152005 19 177 6.4 17.7 0.00 0.00 0.00 66 1012.8
20260505151512 19 127 6.4 17.7 0.00 0.00 0.00 65 1012.9
20260505151009 18 150 4.8 14.5 0.00 0.00 0.00 65 1012.9
20260505150507 18 149 6.4 16.1 0.00 0.00 0.00 65 1012.7
20260505140508 17 158 6.4 12.9 0.00 0.00 0.00 66 1012.3
20260505125008 16 130 3.2 6.4 0.00 0.00 0.00 72 1012.2
20260505124518 15 146 0.0 3.2 0.00 0.00 0.00 73 1012.2
20260505124006 15 111 1.6 3.2 0.00 0.00 0.00 75 1012.4
20260505123508 15 238 0.0 3.2 0.00 0.00 0.00 76 1012.3
20260505123022 15 339 0.0 3.2 0.00 0.00 0.00 77 1012.3
20260505122511 14 168 0.0 3.2 0.00 0.00 0.00 78 1012.2
20260505122014 14 168 0.0 3.2 0.00 0.00 0.00 79 1012.3
20260505121532 13 168 0.0 3.2 0.00 0.00 0.00 79 1012.3
20260505121011 13 168 0.0 3.2 0.00 0.00 0.00 79 1012.2
20260505120510 13 168 0.0 3.2 0.00 0.00 0.00 80 1012.3
20260505120029 13 168 0.0 3.2 0.00 0.00 0.00 78 1012.3
20260505115510 13 168 0.0 3.2 0.00 0.00 0.00 77 1012.2
20260505115010 13 168 0.0 1.6 0.00 0.00 0.00 77 1012.2
20260505114515 13 168 0.0 3.2 0.00 0.00 0.00 78 1012.1
20260505114008 13 168 0.0 1.6 0.00 0.00 0.00 78 1012.0
20260505113506 13 168 0.0 3.2 0.00 0.00 0.00 78 1011.9
20260505113004 13 168 0.0 3.2 0.00 0.00 0.00 78 1011.9
20260505112503 13 168 0.0 3.2 0.00 0.00 0.00 77 1011.8
20260505112003 13 168 0.0 3.2 0.00 0.00 0.00 77 1011.8
20260505111504 13 168 0.0 3.2 0.00 0.00 0.00 76 1011.7
20260505111004 13 168 0.0 3.2 0.00 0.00 0.00 77 1011.8
20260505110504 13 168 0.0 3.2 0.00 0.00 0.00 77 1011.7
20260505102009 13 168 0.0 3.2 0.00 0.00 0.00 75 1011.5
20260505101518 13 124 0.0 3.2 0.00 0.00 0.00 74 1011.4
20260505101003 13 97 1.6 8.0 0.00 0.00 0.00 74 1011.3
20260505100503 13 70 1.6 8.0 0.00 0.00 0.00 74 1011.3
20260505100014 13 118 1.6 4.8 0.00 0.00 0.00 74 1011.3
20260505095503 13 158 0.0 6.4 0.00 0.00 0.00 74 1011.3
20260505095005 13 139 1.6 6.4 0.00 0.00 0.00 73 1011.4
20260505094512 14 121 1.6 8.0 0.00 0.00 0.00 73 1011.3
20260505094005 14 149 0.0 6.4 0.00 0.00 0.00 73 1011.3
20260505093506 14 148 1.6 4.8 0.00 0.00 0.00 72 1011.2
20260505093023 14 195 1.6 8.0 0.00 0.00 0.00 72 1011.2
20260505092505 14 175 0.0 8.0 0.00 0.00 0.00 72 1011.2
20260505092008 14 150 1.6 4.8 0.00 0.00 0.00 71 1011.2
20260505091523 14 134 1.6 8.0 0.00 0.00 0.00 71 1011.1
20260505091006 15 136 1.6 8.0 0.00 0.00 0.00 70 1011.1
20260505090510 15 165 1.6 6.4 0.00 0.00 0.00 69 1011.1
20260505090024 15 165 1.6 6.4 0.00 0.00 0.00 69 1011.2
20260505085504 15 143 1.6 9.7 0.00 0.00 0.00 69 1011.2
20260505085009 15 100 4.8 9.7 0.00 0.00 0.00 69 1011.1
20260505084506 15 147 3.2 8.0 0.00 0.00 0.00 69 1011.2
20260505084005 15 176 1.6 8.0 0.00 0.00 0.00 68 1011.2
20260505083010 15 149 3.2 8.0 0.00 0.00 0.00 67 1011.2
20260505082506 16 144 1.6 8.0 0.00 0.00 0.00 67 1011.3
20260505082008 16 143 3.2 8.0 0.00 0.00 0.00 67 1011.2
20260505081518 16 160 1.6 8.0 0.00 0.00 0.00 67 1011.0
20260505081008 16 143 1.6 11.3 0.00 0.00 0.00 67 1010.9
20260505080508 16 94 3.2 11.3 0.00 0.00 0.00 66 1010.9
20260505080025 16 146 3.2 11.3 0.00 0.00 0.00 66 1010.8
20260505075509 16 163 4.8 11.3 0.00 0.00 0.00 66 1010.9
20260505075009 16 184 3.2 9.7 0.00 0.00 0.00 66 1010.9
20260505074526 16 165 4.8 9.7 0.00 0.00 0.00 65 1010.8
20260505074004 16 174 3.2 11.3 0.00 0.00 0.00 65 1010.7
20260505073506 16 140 3.2 11.3 0.00 0.00 0.00 65 1010.7
20260505073006 16 160 4.8 11.3 0.00 0.00 0.00 65 1010.6
20260505072508 16 176 4.8 9.7 0.00 0.00 0.00 65 1010.4
20260505072006 16 186 3.2 9.7 0.00 0.00 0.00 65 1010.4
20260505071518 16 161 6.4 9.7 0.00 0.00 0.00 64 1010.5
20260505071008 16 169 3.2 8.0 0.00 0.00 0.00 64 1010.6
20260505070509 16 155 3.2 14.5 0.00 0.00 0.00 63 1010.6
20260505070020 16 169 4.8 14.5 0.00 0.00 0.00 63 1010.6
20260505065507 16 150 6.4 14.5 0.00 0.00 0.00 63 1010.6
20260505065015 16 179 3.2 12.9 0.00 0.00 0.00 64 1010.6
20260505064524 16 179 3.2 12.9 0.00 0.00 0.00 63 1010.6
20260505064009 17 109 6.4 12.9 0.00 0.00 0.00 63 1010.7
20260505063509 17 136 3.2 12.9 0.00 0.00 0.00 63 1010.7
20260505063041 17 129 4.8 12.9 0.00 0.00 0.00 63 1010.7
20260505062504 17 174 4.8 11.3 0.00 0.00 0.00 62 1010.7
20260505062005 17 184 4.8 8.0 0.00 0.00 0.00 62 1010.8
20260505061508 17 125 3.2 9.7 0.00 0.00 0.00 62 1010.8
20260505061007 17 139 3.2 11.3 0.00 0.00 0.00 61 1010.9
20260505060508 17 147 4.8 11.3 0.00 0.00 0.00 61 1010.9
20260505060017 17 155 4.8 12.9 0.00 0.00 0.00 61 1010.9
20260505055509 17 174 6.4 12.9 0.00 0.00 0.00 60 1011.0
20260505055010 17 170 4.8 19.3 0.00 0.00 0.00 60 1011.0
20260505054527 17 143 6.4 19.3 0.00 0.00 0.00 60 1010.9
20260505054012 18 175 6.4 12.9 0.00 0.00 0.00 60 1011.0
20260505053510 18 176 6.4 12.9 0.00 0.00 0.00 59 1011.1
20260505053026 18 162 3.2 12.9 0.00 0.00 0.00 60 1011.1
20260505052507 18 143 4.8 14.5 0.00 0.00 0.00 60 1011.0
20260505052011 18 153 3.2 14.5 0.00 0.00 0.00 60 1011.0
20260505051536 18 149 3.2 12.9 0.00 0.00 0.00 59 1011.0
20260505051006 18 145 3.2 14.5 0.00 0.00 0.00 59 1011.1
20260505050507 18 115 4.8 16.1 0.00 0.00 0.00 58 1011.0
20260505041542 19 162 6.4 14.5 0.00 0.00 0.00 55 1010.8
20260505041009 19 160 4.8 14.5 0.00 0.00 0.00 55 1010.6
20260505040509 19 139 3.2 11.3 0.00 0.00 0.00 55 1010.6
20260505040029 19 169 4.8 14.5 0.00 0.00 0.00 54 1010.6
20260505035507 20 150 6.4 14.5 0.00 0.00 0.00 53 1010.6
20260505035007 19 144 4.8 14.5 0.00 0.00 0.00 54 1010.6
20260505034515 20 161 3.2 12.9 0.00 0.00 0.00 54 1010.4
20260505034006 20 148 3.2 11.3 0.00 0.00 0.00 53 1010.4
20260505033508 20 169 4.8 16.1 0.00 0.00 0.00 53 1010.4
20260505033024 20 170 4.8 16.1 0.00 0.00 0.00 53 1010.4
20260505032512 20 160 6.4 16.1 0.00 0.00 0.00 53 1010.4
20260505032008 20 215 8.0 16.1 0.00 0.00 0.00 53 1010.3
20260505031529 20 162 6.4 14.5 0.00 0.00 0.00 53 1010.1
20260505031007 20 167 4.8 20.9 0.00 0.00 0.00 53 1010.1
20260505030510 20 172 6.4 20.9 0.00 0.00 0.00 53 1010.1
20260505030026 20 138 6.4 25.7 0.00 0.00 0.00 52 1010.0
20260505025514 20 162 6.4 25.7 0.00 0.00 0.00 52 1009.9
20260505025010 20 127 8.0 14.5 0.00 0.00 0.00 52 1009.9
20260505024528 20 155 8.0 16.1 0.00 0.00 0.00 51 1009.8
20260505024007 20 163 8.0 16.1 0.00 0.00 0.00 51 1009.8
20260505023508 20 127 6.4 16.1 0.00 0.00 0.00 51 1009.8
20260505023018 20 160 4.8 17.7 0.00 0.00 0.00 51 1009.6
20260505022506 20 105 8.0 20.9 0.00 0.00 0.00 50 1009.5
20260505022010 21 150 8.0 20.9 0.00 0.00 0.00 50 1009.5
20260505021525 21 118 8.0 20.9 0.00 0.00 0.00 50 1009.5
20260505021009 21 176 8.0 16.1 0.00 0.00 0.00 49 1009.4
20260505020510 21 115 8.0 22.5 0.00 0.00 0.00 49 1009.3
20260505020024 21 165 9.7 22.5 0.00 0.00 0.00 48 1009.1
20260505015511 21 79 8.0 20.9 0.00 0.00 0.00 48 1008.9
20260505015005 21 120 9.7 20.9 0.00 0.00 0.00 48 1009.1
20260505014516 21 150 8.0 20.9 0.00 0.00 0.00 48 1009.0
20260505014006 21 226 11.3 19.3 0.00 0.00 0.00 48 1009.0
20260505013507 21 160 4.8 19.3 0.00 0.00 0.00 48 1009.1
20260505013018 21 103 8.0 20.9 0.00 0.00 0.00 48 1009.0
20260505012508 21 105 11.3 20.9 0.00 0.00 0.00 48 1009.0
20260505012007 21 155 3.2 27.4 0.00 0.00 0.00 48 1008.9
20260505011520 22 169 9.7 27.4 0.00 0.00 0.00 48 1008.9
20260505011004 22 107 9.7 20.9 0.00 0.00 0.00 48 1009.0
20260505010503 22 131 9.7 22.5 0.00 0.00 0.00 48 1009.1
20260505010009 22 171 11.3 22.5 0.00 0.00 0.00 49 1009.2
20260505005503 22 152 9.7 17.7 0.00 0.00 0.00 49 1009.2
20260505005004 21 168 8.0 16.1 0.00 0.00 0.00 49 1009.3
20260505004511 21 170 4.8 11.3 0.00 0.00 0.00 50 1009.4
20260505004007 22 150 3.2 11.3 0.00 0.00 0.00 50 1009.3
20260505003507 22 148 6.4 9.7 0.00 0.00 0.00 49 1009.3
20260505003011 22 151 3.2 9.7 0.00 0.00 0.00 48 1009.4
20260505002506 22 158 4.8 12.9 0.00 0.00 0.00 48 1009.4
20260505002010 22 148 4.8 12.9 0.00 0.00 0.00 48 1009.4
20260505001520 22 168 4.8 12.9 0.00 0.00 0.00 47 1009.5
20260505001006 22 176 6.4 14.5 0.00 0.00 0.00 47 1009.5
20260505000506 23 148 4.8 14.5 0.00 0.00 0.00 46 1009.7
20260505000024 23 146 3.2 14.5 0.00 0.00 0.00 46 1009.7
20260504235504 23 154 8.0 14.5 0.00 0.00 0.00 45 1009.7
20260504235002 23 186 6.4 17.7 0.00 0.00 0.00 44 1009.8
20260504234507 23 184 8.0 17.7 0.00 0.00 0.00 44 1009.8
20260504234002 23 181 6.4 17.7 0.00 0.00 0.00 44 1009.8
20260504233503 24 162 8.0 19.3 0.00 0.00 0.00 45 1009.9
20260504233010 24 190 9.7 19.3 0.00 0.00 0.00 44 1009.8
20260504232507 24 186 6.4 17.7 0.00 0.00 0.00 44 1009.9
20260504232007 24 144 6.4 24.1 0.00 0.00 0.00 44 1010.0
20260504231519 24 128 8.0 24.1 0.00 0.00 0.00 44 1010.0
20260504231010 24 178 9.7 17.7 0.00 0.00 0.00 43 1010.1
20260504230508 25 192 6.4 20.9 0.00 0.00 0.00 44 1010.1
20260504230020 25 195 6.4 20.9 0.00 0.00 0.00 43 1010.2
20260504225507 25 182 11.3 19.3 0.00 0.00 0.00 42 1010.1
20260504225008 25 153 6.4 16.1 0.00 0.00 0.00 42 1010.1
20260504224527 25 149 8.0 19.3 0.00 0.00 0.00 42 1010.2
20260504224003 25 174 12.9 19.3 0.00 0.00 0.00 43 1010.3
20260504223504 24 176 8.0 22.5 0.00 0.00 0.00 43 1010.3
20260504223007 24 190 9.7 22.5 0.00 0.00 0.00 43 1010.3
20260504222503 25 192 11.3 27.4 0.00 0.00 0.00 43 1010.4
20260504222006 25 186 11.3 27.4 0.00 0.00 0.00 42 1010.4
20260504221511 25 137 9.7 20.9 0.00 0.00 0.00 43 1010.4
20260504221006 25 140 4.8 19.3 0.00 0.00 0.00 45 1010.3
20260504220509 25 152 4.8 19.3 0.00 0.00 0.00 44 1010.2
20260504220021 25 113 9.7 19.3 0.00 0.00 0.00 43 1010.2
20260504215512 25 191 4.8 27.4 0.00 0.00 0.00 45 1010.2
20260504215008 25 131 11.3 24.1 0.00 0.00 0.00 45 1010.3
20260504214536 25 163 9.7 24.1 0.00 0.00 0.00 45 1010.3
20260504214014 25 181 9.7 20.9 0.00 0.00 0.00 45 1010.2
20260504213510 25 131 11.3 24.1 0.00 0.00 0.00 46 1010.3
20260504213028 25 167 9.7 24.1 0.00 0.00 0.00 45 1010.3
20260504212503 25 115 11.3 19.3 0.00 0.00 0.00 45 1010.3
20260504212005 25 188 9.7 19.3 0.00 0.00 0.00 46 1010.3
20260504211512 25 129 8.0 19.3 0.00 0.00 0.00 45 1010.3
20260504211007 25 168 8.0 24.1 0.00 0.00 0.00 46 1010.4
20260504210512 25 96 11.3 30.6 0.00 0.00 0.00 45 1010.4
20260504210019 25 195 9.7 30.6 0.00 0.00 0.00 45 1010.4
20260504205507 25 179 12.9 25.7 0.00 0.00 0.00 44 1010.3
20260504205007 25 146 11.3 25.7 0.00 0.00 0.00 44 1010.3
20260504204520 25 163 12.9 22.5 0.00 0.00 0.00 44 1010.4
20260504204009 25 141 11.3 24.1 0.00 0.00 0.00 45 1010.3
20260504203509 25 135 8.0 24.1 0.00 0.00 0.00 45 1010.4
20260504203026 25 164 9.7 24.1 0.00 0.00 0.00 46 1010.4
20260504202511 25 188 14.5 27.4 0.00 0.00 0.00 45 1010.6
20260504202010 25 129 12.9 27.4 0.00 0.00 0.00 47 1010.7
20260504201509 24 192 9.7 25.7 0.00 0.00 0.00 47 1010.9
20260504201008 25 120 9.7 29.0 0.00 0.00 0.00 45 1011.0
20260504200507 25 195 9.7 35.4 0.00 0.00 0.00 45 1011.0
20260504200017 25 207 17.7 35.4 0.00 0.00 0.00 46 1011.2
20260504195505 25 140 9.7 29.0 0.00 0.00 0.00 47 1011.2
20260504195007 25 161 9.7 29.0 0.00 0.00 0.00 46 1011.4
20260504194522 25 174 12.9 37.0 0.00 0.00 0.00 45 1011.4
20260504194007 25 197 14.5 37.0 0.00 0.00 0.00 45 1011.5
20260504193514 25 193 12.9 27.4 0.00 0.00 0.00 46 1011.6
20260504193024 25 174 14.5 24.1 0.00 0.00 0.00 46 1011.6
20260504192512 25 195 9.7 20.9 0.00 0.00 0.00 46 1011.7
20260504192009 24 194 8.0 20.9 0.00 0.00 0.00 47 1011.7
20260504191524 25 137 8.0 22.5 0.00 0.00 0.00 47 1011.8
20260504191013 25 139 9.7 22.5 0.00 0.00 0.00 46 1011.9
20260504190513 25 179 11.3 20.9 0.00 0.00 0.00 47 1011.7
20260504190013 25 122 11.3 20.9 0.00 0.00 0.00 47 1012.0
20260504185506 24 193 14.5 24.1 0.00 0.00 0.00 46 1011.9
20260504185006 24 218 12.9 24.1 0.00 0.00 0.00 46 1012.0
20260504184526 24 176 9.7 22.5 0.00 0.00 0.00 46 1012.0
20260504184009 24 180 11.3 20.9 0.00 0.00 0.00 47 1012.0
20260504183507 24 160 9.7 19.3 0.00 0.00 0.00 48 1012.0
20260504183026 24 193 9.7 24.1 0.00 0.00 0.00 46 1012.0
20260504182509 23 106 9.7 24.1 0.00 0.00 0.00 48 1011.9
20260504182010 23 124 12.9 27.4 0.00 0.00 0.00 48 1012.0
20260504181523 23 179 12.9 27.4 0.00 0.00 0.00 46 1012.1
20260504181010 23 134 11.3 22.5 0.00 0.00 0.00 50 1012.2
20260504180511 23 190 12.9 25.7 0.00 0.00 0.00 50 1012.2
20260504180027 23 173 8.0 25.7 0.00 0.00 0.00 49 1012.2
20260504175511 23 179 14.5 24.1 0.00 0.00 0.00 50 1012.3
20260504175011 23 172 12.9 22.5 0.00 0.00 0.00 50 1012.4
20260504174514 23 181 8.0 22.5 0.00 0.00 0.00 52 1012.4
20260504174005 23 189 8.0 20.9 0.00 0.00 0.00 52 1012.4
20260504173512 22 179 12.9 20.9 0.00 0.00 0.00 52 1012.4
20260504173021 22 131 11.3 22.5 0.00 0.00 0.00 52 1012.5
20260504172512 22 183 11.3 24.1 0.00 0.00 0.00 52 1012.6
20260504172011 22 185 11.3 27.4 0.00 0.00 0.00 53 1012.6
20260504171524 21 161 11.3 27.4 0.00 0.00 0.00 55 1012.6
20260504171011 21 146 12.9 22.5 0.00 0.00 0.00 55 1012.6
20260504170515 21 140 6.4 25.7 0.00 0.00 0.00 52 1012.7